STARLINK-4099 (53146 NORAD) Tracking and Keplerian Element Data

This shows tracking and keplerian element data for the satellite.

Feedback or suggestion? Click here.




ElementValue
Catalog53146
NameSTARLINK-4099
Epoch Orbit130
Epoch Day269.91667824
Epoch Year2022
RAAN69.4495
Inclination53.2171
Eccentricity0.0001527
Argument of Perigee52.9144
Mean Anonmoly63.8285
Mean Motion15.08807888
Decay Rate0.00047729
L11 53146U 22083Q 22269.91667824 .00047729 00000+0 29994-2 0 9991
L22 53146 53.2171 69.4495 0001527 52.9144 63.8285 15.08807888 1306

Live tracking and technical data element details for STARLINK-4099 (NORAD 53146). STARLINK-4099 can be tracked NOW for your location showing map with azimuth and elevation plus other details from your city location.

Track the satellite on the map from your city or location and see movement details for azimuth, elevation, latitude, longitude, range, height, and movement on the map or in text.







IsCatalogInMostPopularTable: catalog: 53146, numindb: 8
Update: records affected: 1



GetName: 53146 STARLINK-4099

Hit Count: updated at: Fri, 30 Sep 2022 03:45:58 GMT